Temperature
0 0 0 0 0 0 0 0 1 1 1 1 1 1 1 1 1 1 1 1 1 1 1 1 1 1 2 2 2 2 2 2 2 2 2 2 2 3 3 3 3 3 3
-1 -0 -0 -0 -0 -0 -0 -0 0 0 1 1 1 1 1 1 1 1 1 0 0 0 0 1 1 1 1 1 1 1 1 1 1 1 1 1 2 2 2 2 2 2 2
-1 -1 -1 -1 -1 -1 -1 -0 -0 0 0 0 0 1 0 1 0 0 0 0 0 0 0 0 0 0 0 0 0 1 1 1 1 1 1 1 1 1 1 1 1 1 2
-2 -2 -2 -1 -1 -1 -1 -1 -1 -0 -0 -0 -0 0 0 0 -0 -0 -0 -0 -0 -0 -0 -0 -0 -0 -0 -0 -0 0 0 0 0 -0 -0 0 0 0 0 0 1 1 1
-2 -2 -2 -2 -2 -2 -2 -1 -1 -1 -1 -1 -0 -0 -0 -1 -1 -1 -1 -1 -1 -1 -1 -1 -1 -1 -1 -1 -1 -1 -1 -1 -1 -1 -1 -1 -0 -1 -1 -0 -0 -0 -0
-3 -3 -3 -2 -2 -2 -2 -2 -2 -1 -1 -1 -1 -1 -1 -1 -1 -1 -1 -1 -1 -1 -1 -1 -1 -1 -1 -1 -1 -1 -1 -1 -1 -1 -1 -1 -1 -1 -1 -1 -1 -1 -1
-3 -3 -3 -3 -3 -2 -2 -2 -2 -2 -2 -2 -1 -1 -2 -1 -1 -1 -1 -2 -1 -2 -2 -2 -2 -2 -2 -2 -1 -1 -1 -1 -2 -2 -2 -2 -2 -2 -2 -2 -2 -2 -2
-4 -4 -3 -3 -3 -3 -3 -3 -3 -2 -2 -2 -2 -2 -2 -2 -2 -2 -2 -2 -2 -2 -2 -2 -2 -2 -2 -2 -2 -2 -2 -2 -2 -2 -2 -2 -2 -2 -2 -2 -2 -2 -2
-4 -4 -4 -4 -4 -3 -3 -3 -3 -3 -3 -3 -3 -2 -2 -2 -2 -2 -2 -2 -2 -2 -2 -2 -2 -2 -2 -2 -3 -3 -2 -2 -2 -2 -3 -3 -3 -3 -3 -3 -3 -3 -3
-4 -4 -4 -4 -4 -4 -4 -4 -3 -3 -3 -3 -3 -3 -3 -3 -3 -3 -3 -3 -3 -3 -3 -3 -3 -3 -3 -3 -3 -3 -3 -3 -3 -3 -3 -3 -3 -3 -3 -3 -3 -3 -3
-5 -5 -5 -5 -4 -4 -4 -4 -4 -4 -4 -4 -3 -3 -3 -3 -3 -3 -3 -3 -3 -3 -3 -3 -3 -3 -3 -3 -3 -3 -3 -3 -3 -3 -3 -3 -3 -3 -3 -3 -3 -3 -4
-5 -5 -5 -5 -5 -5 -5 -5 -5 -4 -4 -4 -4 -4 -4 -4 -4 -3 -4 -4 -4 -4 -4 -4 -4 -4 -4 -4 -4 -4 -4 -4 -4 -4 -4 -4 -4 -3 -3 -3 -4 -4 -4
-5 -5 -5 -5 -5 -5 -5 -5 -5 -5 -5 -5 -5 -5 -5 -4 -4 -4 -4 -4 -4 -4 -4 -4 -4 -4 -4 -4 -4 -4 -4 -4 -4 -4 -4 -4 -4 -4 -4 -4 -4 -4 -4
-5 -5 -6 -6 -6 -6 -6 -5 -5 -5 -6 -5 -5 -5 -5 -5 -5 -4 -4 -4 -4 -4 -4 -4 -4 -4 -4 -4 -4 -4 -4 -4 -4 -4 -4 -4 -4 -5 -4 -5 -5 -5 -5
-5 -6 -6 -6 -6 -6 -6 -6 -6 -6 -6 -5 -5 -5 -5 -5 -5 -5 -5 -4 -4 -4 -4 -4 -4 -4 -4 -4 -4 -4 -5 -5 -5 -5 -5 -5 -5 -5 -5 -5 -5 -5 -5
-6 -6 -6 -6 -6 -6 -6 -6 -6 -6 -6 -6 -5 -5 -5 -5 -5 -5 -5 -5 -5 -4 -4 -4 -5 -5 -5 -5 -5 -5 -5 -5 -5 -5 -5 -5 -5 -6 -6 -6 -6 -6 -6
-6 -6 -6 -6 -6 -6 -6 -6 -6 -6 -6 -6 -6 -6 -5 -5 -5 -5 -5 -5 -5 -5 -5 -5 -5 -5 -5 -5 -5 -5 -5 -6 -6 -6 -6 -6 -6 -6 -6 -6 -6 -6 -6
-6 -6 -6 -7 -7 -7 -6 -6 -6 -6 -6 -6 -6 -6 -6 -6 -6 -5 -5 -5 -5 -5 -5 -5 -5 -5 -5 -6 -6 -6 -6 -6 -6 -6 -6 -6 -6 -6 -6 -6 -6 -6 -6
-6 -6 -7 -7 -7 -7 -7 -6 -6 -6 -6 -6 -6 -6 -6 -6 -6 -6 -6 -6 -5 -5 -5 -5 -5 -6 -6 -6 -6 -6 -6 -6 -6 -6 -6 -6 -6 -6 -6 -6 -6 -6 -6
-6 -6 -7 -7 -7 -7 -7 -7 -7 -7 -7 -6 -6 -6 -6 -6 -6 -6 -6 -6 -6 -6 -6 -6 -6 -6 -6 -6 -6 -6 -6 -6 -7 -7 -7 -7 -7 -7 -7 -7 -7 -7 -7
-6 -6 -6 -7 -7 -7 -7 -7 -7 -7 -7 -7 -7 -7 -7 -7 -6 -6 -6 -6 -6 -6 -6 -6 -6 -6 -6 -6 -6 -6 -7 -7 -7 -7 -7 -7 -7 -7 -7 -7 -7 -7 -7
-6 -6 -6 -7 -7 -7 -7 -7 -7 -7 -7 -7 -7 -7 -7 -7 -7 -7 -7 -7 -7 -6 -6 -6 -6 -6 -7 -7 -7 -7 -7 -7 -7 -7 -7 -7 -7 -7 -7 -7 -7 -7 -7
-6 -6 -7 -7 -7 -7 -7 -7 -7 -7 -7 -7 -7 -7 -7 -7 -7 -7 -7 -7 -7 -7 -7 -7 -7 -7 -7 -7 -7 -7 -7 -7 -7 -7 -7 -7 -7 -7 -7 -7 -7 -7 -7
-7 -7 -7 -7 -7 -7 -7 -7 -7 -7 -7 -7 -7 -7 -7 -7 -7 -7 -7 -7 -7 -7 -7 -7 -7 -7 -7 -7 -7 -7 -7 -7 -7 -7 -7 -7 -7 -7 -7 -7 -7 -8 -8
-7 -7 -7 -7 -7 -7 -7 -7 -7 -7 -8 -8 -8 -8 -8 -8 -8 -8 -8 -8 -7 -7 -7 -7 -7 -7 -7 -7 -7 -7 -7 -7 -7 -7 -7 -7 -7 -7 -7 -7 -8 -8 -8
-7 -7 -7 -7 -7 -7 -8 -8 -8 -8 -8 -8 -8 -8 -8 -8 -8 -8 -8 -8 -8 -8 -8 -8 -7 -7 -7 -7 -7 -7 -7 -7 -7 -7 -7 -7 -7 -7 -7 -7 -8 -8 -8
Wind_Speed
3 3 3 3 3 3 3 3 3 2 2 1 1 1 1 1 1 1 1 1 1 1 1 2 2 2 1 1 1 1 1 1 3 3 2 1 2 2 3 3 4 4 4
3 4 3 3 3 2 3 3 3 2 2 1 1 1 1 1 1 1 2 2 1 2 2 2 2 2 2 2 2 2 2 2 2 3 2 2 3 2 2 2 3 4 4
3 3 3 2 2 3 3 3 3 2 2 1 1 1 1 1 1 2 2 2 2 2 2 2 2 2 2 2 2 2 2 2 2 2 3 2 2 2 2 2 3 3 4
3 3 3 3 2 3 3 3 3 2 2 1 1 2 1 1 1 2 2 2 2 2 2 2 2 2 3 3 2 2 2 2 2 2 3 3 2 2 1 2 2 2 3
3 3 3 3 2 2 3 3 3 3 2 1 1 1 2 1 1 1 1 2 2 2 2 2 2 2 3 3 3 2 2 2 2 2 3 3 2 2 2 2 2 3 3
3 3 3 3 2 2 3 3 2 3 2 2 1 1 1 2 2 2 1 1 1 1 2 2 2 2 3 3 4 4 3 3 3 3 3 3 4 3 2 2 2 3 3
3 3 3 3 3 3 3 3 3 2 2 2 1 1 2 2 2 2 1 1 1 1 1 1 2 2 2 1 2 3 3 4 4 4 4 4 4 3 3 3 3 3 4
3 3 2 3 3 3 3 2 3 2 2 2 2 2 2 2 3 3 2 1 1 1 1 1 1 2 2 1 1 1 2 2 3 3 3 4 4 3 3 4 4 3 2
3 3 2 2 3 3 2 3 2 2 2 2 2 2 1 2 3 3 2 1 1 1 1 1 1 2 2 2 1 1 2 3 4 4 4 5 5 5 4 2 2 1 2
3 3 3 2 3 3 3 3 2 2 2 2 2 2 2 2 2 2 2 0 0 1 1 1 2 2 2 2 1 1 2 3 2 3 3 4 4 4 4 3 3 2 2
3 3 3 3 3 3 2 2 2 2 2 2 2 2 2 2 2 2 2 0 0 1 1 1 1 2 2 3 3 2 3 3 2 2 2 2 2 2 1 1 1 2 2
2 3 3 3 3 2 2 2 2 1 1 2 1 2 1 2 2 2 3 2 1 1 1 1 1 2 3 3 2 3 3 3 1 2 2 1 1 1 1 2 2 2 2
2 2 2 3 2 2 1 1 1 1 1 1 1 1 2 2 2 3 4 3 3 1 1 2 2 3 3 2 2 3 3 1 1 1 1 2 1 1 1 1 2 2 3
2 2 2 2 2 2 1 1 1 1 1 1 1 1 2 2 2 2 2 2 3 2 1 2 2 2 3 2 2 2 1 1 1 1 1 1 1 1 1 1 1 1 2
2 2 2 2 1 1 1 1 1 2 2 1 1 1 2 2 4 5 3 2 1 2 1 1 1 1 1 1 2 2 2 2 2 2 1 1 2 2 2 2 1 1 1
2 2 2 1 1 1 1 2 2 2 3 3 3 3 3 4 6 5 5 4 3 2 1 0 0 0 1 1 1 2 2 2 2 1 2 2 2 2 2 2 1 1 1
2 2 2 1 1 1 1 1 1 2 2 2 3 4 4 4 4 5 4 4 2 1 1 0 0 0 1 1 1 1 2 2 2 2 2 2 2 2 2 2 2 1 2
2 2 2 1 1 1 1 1 1 1 1 2 2 3 4 3 3 4 4 3 2 1 1 0 0 1 1 1 1 1 1 2 2 2 2 2 2 2 2 2 2 2 2
2 1 1 1 1 1 1 1 1 1 1 2 2 2 4 4 4 4 3 2 1 1 1 1 1 1 1 1 1 1 1 1 2 2 2 2 2 2 2 2 2 3 3
2 2 1 1 1 1 1 0 0 1 1 1 2 2 2 2 2 2 2 2 2 1 1 1 1 1 1 1 1 1 1 1 1 1 2 2 2 2 2 2 2 2 2
1 1 2 1 1 1 0 0 0 1 1 1 2 3 3 1 1 2 2 2 2 2 2 1 1 1 1 1 1 1 2 2 1 1 1 2 2 2 2 2 2 2 2
1 1 1 1 1 1 1 0 1 1 1 1 1 2 4 2 2 2 2 2 2 2 2 1 1 1 1 1 1 1 1 2 2 2 2 2 2 2 2 2 2 2 2
0 0 1 1 1 1 1 1 1 1 1 1 1 1 2 1 2 2 2 2 2 2 2 2 1 2 2 2 2 2 1 2 2 2 2 2 2 2 2 2 2 3 2
0 0 1 1 0 0 1 1 1 1 1 1 1 1 1 1 1 2 2 2 2 2 2 2 2 2 3 2 2 3 3 3 3 3 3 2 2 2 2 2 2 3 2
0 0 1 1 1 0 1 1 1 1 1 1 1 1 1 1 1 2 2 2 2 2 3 3 3 3 3 3 3 3 4 4 4 3 2 2 2 2 2 2 2 2 2
0 0 1 0 1 1 1 1 1 1 1 1 1 1 1 2 1 1 2 2 2 2 3 3 3 4 4 3 4 4 4 4 4 3 2 1 1 1 1 1 2 1 1
Wind_Direction
318 316 311 306 308 308 307 306 306 306 304 288 302 315 313 313 321 295 272 263 269 288 291 288 292 292 296 295 283 260 253 235 253 283 299 336 344 332 336 339 333 327 320
317 314 305 304 309 307 307 309 317 309 307 298 297 291 299 319 317 299 287 285 266 263 270 275 284 289 283 281 280 272 266 254 237 259 286 309 305 306 321 325 327 324 307
321 313 308 306 312 315 319 320 324 315 308 314 305 281 283 293 301 292 286 283 275 265 267 262 261 258 262 269 271 263 264 270 238 249 277 290 291 306 323 317 318 317 309
322 312 307 307 314 319 323 320 318 314 304 297 297 298 292 285 286 284 282 285 283 274 267 263 263 253 249 255 260 252 247 246 248 248 264 281 285 297 307 304 311 311 314
319 318 317 319 321 323 321 319 320 318 311 295 290 299 302 281 286 297 288 286 281 282 285 277 272 264 261 259 258 248 238 231 238 247 259 280 285 295 295 299 303 312 309
321 323 327 326 330 330 322 320 321 315 304 297 300 306 294 290 292 293 295 278 281 273 284 297 285 270 281 274 271 265 252 238 241 246 257 261 273 279 295 298 301 310 304
315 318 323 329 333 327 323 326 318 309 304 293 304 304 297 283 284 294 286 287 278 263 268 294 303 309 304 291 300 302 299 281 261 249 246 257 268 273 277 287 287 289 283
308 308 318 321 314 318 315 311 308 303 304 296 286 281 285 284 298 309 303 283 262 257 254 256 275 290 300 315 309 307 306 308 288 263 247 257 266 268 252 257 265 287 291
302 304 306 306 308 307 300 298 296 298 292 287 277 271 271 275 294 311 324 282 271 275 270 258 276 272 288 308 317 298 298 301 308 298 284 282 285 285 287 271 272 262 288
299 303 306 304 301 292 287 289 291 288 284 292 296 285 263 260 289 310 312 217 270 298 300 285 280 285 283 292 284 260 276 287 301 313 303 299 295 291 288 248 222 230 273
306 308 304 296 290 285 293 297 304 302 303 304 304 303 292 287 297 317 324 159 223 280 291 290 292 291 283 291 296 280 278 287 282 289 285 281 284 276 293 294 235 210 236
306 301 296 294 294 301 303 305 313 318 313 313 325 327 316 311 329 320 333 330 321 257 272 279 284 301 301 304 306 302 303 314 292 287 289 290 297 313 350 358 350 327 293
297 294 295 298 295 293 293 302 307 299 289 311 325 326 329 339 334 340 343 336 331 320 280 297 308 315 323 320 325 327 331 320 298 292 298 306 310 318 348 357 350 340 328
287 292 297 297 299 305 308 301 296 291 289 303 323 332 329 329 329 330 326 335 343 346 337 324 334 352 356 349 344 349 353 347 333 317 324 323 329 340 338 330 334 351 346
280 281 288 286 280 284 290 284 288 274 284 289 269 282 300 303 309 322 326 316 311 298 326 3 28 13 3 0 2 3 12 19 10 351 341 335 336 336 331 334 330 343 326
274 280 284 293 293 298 301 305 293 289 306 318 306 304 296 298 309 319 322 321 320 332 17 95 29 340 351 354 0 359 1 1 351 339 335 326 323 322 321 325 320 321 314
257 273 278 285 283 288 300 316 323 316 309 322 328 330 322 315 320 329 335 336 346 33 47 90 356 4 0 357 355 353 345 344 348 347 339 331 323 318 316 313 313 313 305
266 268 269 259 268 274 280 287 294 318 338 336 330 339 344 343 344 347 352 8 31 41 31 23 355 351 353 348 346 345 346 348 352 346 335 328 322 317 312 310 308 295 295
259 256 256 254 259 261 272 286 302 323 327 331 342 346 354 359 3 8 14 28 18 1 353 351 351 346 341 335 335 340 340 334 333 331 329 327 322 320 314 316 317 312 310
254 268 277 251 252 250 259 285 319 331 330 331 334 337 351 5 11 4 7 10 11 359 351 346 343 335 333 333 334 339 334 324 325 328 322 320 318 316 312 315 315 313 310
260 267 277 266 243 238 242 263 297 302 303 313 316 320 349 1 345 346 357 7 8 0 353 348 337 328 327 337 340 332 319 308 308 310 309 307 305 306 304 301 301 304 306
248 257 262 263 275 281 295 266 255 288 308 316 321 331 352 6 358 358 359 359 0 359 346 338 325 331 332 326 326 317 308 311 312 307 299 296 294 292 299 299 297 301 304
291 315 324 309 292 290 314 310 294 286 291 301 314 330 340 351 348 350 352 355 354 347 333 324 327 330 321 317 306 286 283 288 292 286 289 282 281 280 282 286 289 294 296
331 313 303 303 305 293 305 311 312 308 305 310 315 317 327 339 342 340 341 342 343 338 331 328 321 318 320 319 310 297 282 283 283 268 261 259 271 276 279 283 283 282 287
338 309 301 295 288 293 296 310 315 313 311 306 306 313 325 334 334 337 341 342 337 335 330 327 320 315 315 316 310 301 304 306 302 289 255 241 258 269 274 275 279 287 294
310 298 293 282 275 269 271 287 301 305 297 298 304 307 310 315 317 325 332 336 334 331 327 324 323 319 316 313 307 309 313 314 314 313 292 235 252 275 282 274 281 289 290
Height
1473 1472 1472 1471 1471 1471 1470 1470 1469 1469 1469 1469 1469 1469 1469 1469 1469 1469 1469 1470 1470 1470 1470 1471 1471 1472 1472 1473 1474 1475 1475 1476 1475 1475 1476 1476 1476 1476 1476 1475 1475 1475 1474
1470 1469 1468 1468 1468 1467 1467 1467 1466 1466 1466 1466 1467 1466 1466 1466 1466 1466 1466 1466 1467 1467 1467 1468 1468 1469 1469 1470 1470 1471 1472 1472 1472 1471 1472 1473 1473 1473 1472 1471 1471 1471 1470
1467 1466 1465 1465 1464 1464 1464 1463 1463 1463 1463 1463 1464 1464 1463 1463 1463 1463 1464 1464 1464 1464 1464 1465 1465 1465 1466 1466 1467 1467 1468 1469 1469 1469 1469 1469 1469 1469 1468 1468 1468 1467 1467
1464 1463 1462 1462 1462 1461 1461 1460 1460 1460 1460 1460 1461 1461 1461 1461 1461 1461 1461 1461 1461 1461 1461 1462 1462 1462 1462 1463 1464 1464 1465 1465 1465 1466 1466 1466 1466 1466 1465 1464 1464 1464 1463
1462 1461 1460 1459 1459 1458 1458 1457 1457 1457 1457 1458 1458 1458 1458 1458 1458 1458 1458 1458 1458 1458 1458 1459 1459 1459 1460 1460 1461 1461 1461 1461 1462 1462 1462 1462 1462 1462 1462 1461 1461 1460 1459
1459 1458 1457 1457 1456 1455 1455 1455 1455 1455 1455 1455 1455 1455 1455 1455 1456 1456 1455 1455 1455 1455 1455 1456 1456 1457 1457 1457 1457 1458 1459 1458 1458 1459 1459 1459 1459 1459 1459 1459 1458 1457 1456
1457 1456 1455 1454 1453 1453 1453 1452 1452 1452 1452 1452 1452 1452 1452 1453 1453 1453 1453 1453 1453 1453 1453 1453 1453 1454 1454 1454 1454 1454 1455 1455 1456 1456 1456 1456 1456 1456 1455 1455 1455 1454 1453
1454 1453 1453 1452 1451 1450 1450 1450 1449 1449 1449 1449 1449 1450 1450 1450 1450 1451 1450 1450 1450 1450 1450 1451 1451 1451 1451 1451 1451 1451 1452 1452 1452 1452 1453 1452 1453 1453 1452 1452 1452 1451 1450
1452 1451 1450 1449 1449 1448 1447 1447 1447 1447 1447 1447 1447 1447 1448 1448 1448 1448 1448 1448 1448 1448 1448 1448 1449 1449 1449 1449 1449 1449 1449 1449 1449 1449 1449 1449 1449 1450 1450 1449 1448 1448 1446
1449 1449 1448 1447 1447 1446 1445 1445 1444 1444 1444 1445 1445 1445 1445 1445 1446 1446 1446 1445 1445 1446 1446 1446 1447 1446 1447 1447 1447 1446 1446 1446 1446 1446 1446 1446 1446 1445 1445 1445 1445 1444 1443
1447 1446 1446 1445 1445 1444 1443 1443 1442 1442 1442 1442 1443 1443 1443 1443 1444 1444 1444 1443 1443 1443 1444 1444 1444 1444 1444 1444 1444 1444 1443 1444 1443 1443 1443 1442 1442 1442 1441 1441 1441 1441 1440
1445 1444 1444 1443 1443 1442 1442 1441 1441 1441 1440 1441 1441 1441 1442 1442 1442 1442 1442 1442 1442 1442 1442 1442 1442 1442 1442 1442 1442 1441 1441 1441 1440 1440 1440 1439 1439 1438 1438 1438 1438 1438 1437
1443 1442 1441 1441 1441 1441 1440 1439 1439 1439 1439 1439 1439 1439 1439 1440 1440 1440 1440 1440 1440 1440 1440 1440 1440 1440 1440 1439 1439 1439 1439 1438 1438 1438 1437 1437 1436 1436 1435 1435 1434 1434 1434
1440 1440 1439 1439 1439 1438 1438 1438 1437 1437 1437 1437 1437 1437 1438 1438 1438 1438 1438 1438 1438 1438 1438 1438 1438 1438 1438 1437 1437 1436 1436 1436 1436 1435 1435 1434 1434 1433 1433 1432 1432 1431 1431
1438 1438 1437 1437 1437 1437 1436 1436 1436 1436 1436 1436 1436 1436 1436 1436 1436 1436 1436 1436 1436 1436 1436 1436 1436 1436 1435 1435 1435 1434 1434 1434 1434 1433 1433 1432 1432 1432 1431 1431 1430 1429 1429
1436 1436 1435 1435 1435 1435 1435 1435 1435 1435 1435 1435 1435 1435 1434 1435 1434 1434 1434 1434 1434 1434 1435 1434 1434 1434 1433 1433 1433 1432 1432 1432 1432 1432 1431 1431 1430 1430 1429 1429 1428 1427 1427
1434 1434 1433 1434 1434 1433 1433 1433 1433 1434 1434 1434 1433 1433 1433 1433 1433 1433 1432 1432 1432 1433 1433 1432 1432 1432 1432 1432 1431 1431 1431 1431 1430 1430 1430 1429 1429 1428 1428 1427 1426 1426 1425
1433 1432 1432 1432 1432 1432 1432 1432 1432 1431 1431 1432 1432 1432 1432 1431 1431 1431 1431 1430 1430 1431 1431 1431 1430 1430 1430 1430 1430 1430 1429 1429 1429 1428 1428 1428 1427 1427 1426 1426 1425 1424 1423
1431 1431 1431 1431 1431 1431 1431 1431 1431 1431 1431 1430 1431 1431 1431 1430 1430 1430 1429 1429 1429 1429 1429 1429 1429 1429 1429 1429 1428 1428 1428 1428 1427 1427 1427 1426 1426 1425 1425 1424 1423 1423 1422
1430 1430 1430 1430 1430 1430 1430 1430 1430 1430 1430 1430 1430 1430 1429 1429 1428 1428 1428 1428 1428 1428 1428 1428 1427 1427 1427 1427 1427 1427 1426 1426 1426 1426 1425 1425 1424 1424 1423 1422 1422 1421 1420
1428 1428 1429 1429 1429 1429 1429 1429 1429 1429 1429 1429 1429 1429 1429 1428 1428 1427 1427 1427 1427 1426 1426 1426 1426 1426 1426 1426 1426 1425 1425 1425 1425 1424 1424 1424 1423 1422 1422 1421 1420 1419 1418
1427 1427 1427 1427 1427 1427 1428 1428 1428 1428 1428 1428 1428 1428 1428 1427 1427 1427 1426 1426 1426 1425 1425 1425 1425 1424 1424 1424 1424 1424 1424 1423 1423 1423 1422 1422 1421 1421 1420 1419 1418 1418 1417
1426 1426 1426 1426 1426 1427 1427 1427 1427 1427 1427 1427 1427 1426 1426 1426 1426 1426 1425 1425 1425 1424 1424 1424 1423 1423 1423 1423 1423 1423 1423 1422 1422 1421 1421 1420 1420 1419 1418 1417 1417 1416 1415
1425 1425 1425 1425 1425 1425 1425 1425 1425 1425 1425 1425 1425 1425 1425 1425 1425 1424 1424 1424 1424 1423 1423 1422 1422 1422 1422 1422 1422 1421 1421 1421 1420 1420 1419 1419 1418 1417 1417 1416 1415 1414 1414
1424 1424 1424 1424 1424 1424 1424 1424 1424 1424 1424 1424 1424 1424 1424 1423 1423 1423 1423 1422 1422 1422 1421 1421 1421 1421 1420 1420 1420 1420 1420 1419 1419 1418 1418 1417 1416 1416 1415 1414 1414 1413 1412
1423 1423 1423 1423 1423 1423 1423 1423 1423 1423 1423 1423 1423 1422 1422 1422 1422 1422 1421 1421 1421 1420 1420 1420 1419 1419 1419 1419 1419 1418 1418 1417 1417 1416 1416 1415 1415 1414 1413 1413 1412 1411 1411